Location: Unspecified
(0.0000°N, 0.0000°E)
Time: 01:44:34
(UTC+00:00)

Tiangong 2 - Pass Details

Date: 11 January 2017
Orbit: 369 x 377 km, 42.8° (Epoch: 21 February)

Event Time Altitude Azimuth Distance (km) Brightness Sun altitude
Rises 18:55:48 0° 301° (WNW) 2,207 5.5 -11.1°
Reaches altitude 10° 18:57:58 10° 290° (WNW) 1,359 4.6 -11.6°
Maximum altitude 19:00:45 31° 225° (SW) 669 3.0 -12.2°
Drops below altitude 10° 19:03:31 10° 160° (SSE) 1,358 3.9 -12.8°
Sets 19:05:41 0° 149° (SSE) 2,207 4.8 -13.3°
